Location: Newark
(3.0500°N, 36.0167°E)
Time: 18:35:28
(UTC+00:00)

Altair - All Passes

Search period start: 24 August 2019 00:00
Search period end: 03 September 2019 00:00
Orbit: 1501 x 1683 km, 47.2° (Epoch: 24 August)

Date Brightness Start Highest point End Pass type
(mag) Time Alt. Az. Time Alt. Az. Time Alt. Az.
24 Aug - 06:55:25 10° N 07:01:19 18° NE 07:07:11 10° E daylight
24 Aug - 08:56:57 10° NW 09:06:07 85° SW 09:15:26 10° SE daylight
24 Aug - 11:06:09 10° W 11:10:53 15° SW 11:15:42 10° SSW daylight
24 Aug - 19:44:20 10° S 19:53:10 34° SE 20:01:53 10° ENE night (unlit)
24 Aug - 21:48:00 10° SW 21:57:52 55° NW 22:07:31 10° NNE visible
25 Aug - 06:30:52 10° N 06:36:03 16° NE 06:41:13 10° E daylight
25 Aug - 08:31:49 10° NW 08:40:59 86° NE 08:50:17 10° SE daylight
25 Aug - 10:40:06 10° W 10:45:39 17° SW 10:51:18 10° S daylight
25 Aug - 19:19:28 10° S 19:27:57 30° SE 19:36:19 10° ENE night (unlit)
25 Aug - 21:22:39 10° SW 21:32:39 62° NW 21:42:29 10° NNE night (unlit)
25 Aug - 23:35:53 10° NW 23:38:15 11° NW 23:40:37 10° NNW visible
26 Aug - 06:06:30 10° NNE 06:10:47 14° NE 06:15:02 10° ENE daylight
26 Aug - 08:06:42 10° NW 08:15:52 78° NE 08:25:05 10° SE daylight
26 Aug - 10:14:14 10° W 10:20:26 20° SW 10:26:46 10° S daylight
26 Aug - 18:54:40 10° S 19:02:42 26° SE 19:10:40 10° ENE visible
26 Aug - 20:57:21 10° SW 21:07:27 69° NW 21:17:24 10° NNE night (unlit)
26 Aug - 23:08:49 10° WNW 23:12:54 13° NW 23:16:58 10° NNW visible
27 Aug - 05:42:27 10° NNE 05:45:29 12° NE 05:48:31 10° ENE daylight
27 Aug - 07:41:36 10° NNW 07:50:43 70° NE 07:59:53 10° SE daylight
27 Aug - 09:48:30 10° W 09:55:14 23° SW 10:02:06 10° S daylight
27 Aug - 18:29:56 10° S 18:37:28 23° SE 18:44:56 10° E visible
27 Aug - 20:32:05 10° SW 20:42:15 76° NW 20:52:17 10° NE night (unlit)
27 Aug - 22:42:22 10° WNW 22:47:34 15° NW 22:52:44 10° NNW visible
28 Aug - 07:16:32 10° NNW 07:25:35 62° NE 07:34:38 10° SE daylight
28 Aug - 09:22:50 10° WNW 09:30:03 26° SW 09:37:23 10° S daylight
28 Aug - 18:05:17 10° S 18:12:12 20° SE 18:19:06 10° E visible
28 Aug - 20:06:50 10° SW 20:17:03 84° NW 20:27:09 10° NE night (unlit)
28 Aug - 22:16:11 10° W 22:22:15 17° NW 22:28:17 10° N visible
29 Aug - 06:51:30 10° NNW 07:00:26 55° NE 07:09:20 10° SE daylight
29 Aug - 08:57:16 10° WNW 09:04:52 30° SW 09:12:36 10° S daylight
29 Aug - 17:40:44 10° S 17:46:57 18° SE 17:53:08 10° E visible
29 Aug - 19:41:39 10° SW 19:51:51 88° SE 20:01:58 10° NE visible
29 Aug - 21:50:10 10° W 21:56:56 20° NW 22:03:41 10° N night (unlit)
30 Aug - 06:26:30 10° NNW 06:35:17 49° NE 06:44:01 10° ESE daylight
30 Aug - 08:31:46 10° WNW 08:39:42 33° SW 08:47:46 10° S daylight
30 Aug - 17:16:21 10° SSE 17:21:40 15° SE 17:26:59 10° E visible
30 Aug - 19:16:29 10° SW 19:26:40 80° SE 19:36:46 10° NE visible
30 Aug - 21:24:16 10° W 21:31:39 23° NW 21:39:00 10° N night (unlit)
31 Aug - 06:01:31 10° NNW 06:10:08 44° NE 06:18:39 10° ESE daylight
31 Aug - 08:06:19 10° WNW 08:14:33 38° SW 08:22:53 10° SSE daylight
31 Aug - 16:52:13 10° SSE 16:56:23 13° SE 17:00:32 10° ESE visible
31 Aug - 18:51:21 10° SSW 19:01:28 72° SE 19:11:32 10° NE visible
31 Aug - 20:58:30 10° W 21:06:23 26° NW 21:14:14 10° N night (unlit)
01 Sep - 05:36:33 10° NNW 05:44:58 39° NE 05:53:16 10° ESE daylight
01 Sep - 07:40:55 10° WNW 07:49:24 43° SW 07:57:58 10° SSE daylight
01 Sep - 16:28:45 10° SSE 16:31:04 11° SE 16:33:24 10° ESE visible
01 Sep - 18:26:15 10° SSW 18:36:16 65° SE 18:46:16 10° NE visible
01 Sep - 20:32:47 10° WSW 20:41:07 29° NW 20:49:24 10° N night (unlit)
02 Sep - 05:11:37 10° NNW 05:19:47 34° NE 05:27:49 10° ESE daylight
02 Sep - 07:15:33 10° WNW 07:24:16 48° SW 07:33:01 10° SSE daylight
02 Sep - 18:01:11 10° SSW 18:11:04 58° SE 18:20:57 10° NE visible
02 Sep - 20:07:10 10° WSW 20:15:51 32° NW 20:24:31 10° NNE visible
